[[{"header":{"parameterUnit":"m.s-1","parameterCategory":1,"la1":30.2991,"la2":30.254,"lo1":-89.0895,"lo2":-89.0444,"dy":0.0017,"dx":0.0017,"nx":28,"ny":28,"refTime":"2023-11-11T03:00:00:Z","depth":0,"parameterNumber":2,"parameterNumberName":"U-component_of_WINDS"},"data":[0,0,0,0,0,0,0,0,0,0,0,0,0,0,0,0,0,0,0,0,0,0,0,0,0,0,0,0,0,0,0,0,0,0,0,0,0,0,0,0,0,0,0,0,0,0,0,0,0,0,0,0,0,0,0,0,0,0,-2.1648,-2.1649,0,-2.1679,-2.1679,-2.1679,-2.1637,-2.1636,-2.1634,-2.1633,-2.1662,-2.1664,-2.1666,0,0,0,0,0,0,0,0,0,0,0,0,0,-2.1552,-2.1554,-2.1648,-2.1649,-2.1649,-2.1679,-2.1679,-2.1679,-2.1638,-2.1636,-2.1634,-2.1632,-2.1661,-2.1664,-2.1667,0,0,0,0,0,0,0,0,0,0,0,0,0,-2.1589,-2.1555,-2.1648,-2.1632,-2.1631,-2.1679,-2.1679,-2.168,-2.1638,-2.1636,-2.1634,-2.1631,-2.1661,-2.1664,-2.1667,-2.1732,0,0,-2.1677,-2.1678,0,0,0,0,0,0,0,0,-2.1587,-2.1593,-2.1634,-2.1633,-2.1632,-2.1652,-2.1656,-2.1697,-2.1639,-2.1635,-2.1633,-2.163,-2.166,-2.1664,-2.1674,-2.1733,-2.1734,-2.1677,-2.1679,-2.168,-2.1681,0,0,0,0,0,0,0,-2.1585,-2.1591,-2.166,-2.1634,-2.1633,-2.1622,-2.1625,-2.1663,-2.166,-2.1635,-2.1632,-2.1637,-2.1659,-2.1671,-2.1674,-2.1735,-2.1677,-2.168,-2.1682,-2.1683,-2.1849,-2.1851,0,0,0,0,0,0,-2.1584,-2.1589,-2.1659,-2.1661,-2.1604,-2.1626,-2.1629,-2.1648,-2.1659,-2.1659,-2.1638,-2.1635,-2.1667,-2.1671,-2.1675,-2.1753,-2.168,-2.1684,-2.1685,-2.1846,-2.1849,-2.1852,0,0,0,0,0,0,-2.1582,-2.1591,-2.1658,-2.1624,-2.1632,-2.163,-2.1651,-2.165,-2.1661,-2.1662,-2.1661,-2.1651,-2.1665,-2.1671,-2.1718,-2.1753,-2.1685,-2.1688,-2.1844,-2.1847,-2.1851,-2.1908,0,0,0,0,0,0,-2.158,-2.159,-2.1616,-2.1625,-2.1634,-2.1701,-2.1653,-2.1652,-2.1667,-2.1662,-2.1674,-2.1673,-2.1664,-2.1714,-2.1722,-2.1757,-2.169,-2.184,-2.1845,-2.185,-2.1903,-2.1913,-2.1922,0,0,0,0,0,-2.1576,-2.163,-2.1617,-2.1626,-2.1666,-2.1704,-2.1708,-2.1697,-2.167,-2.1695,-2.1696,-2.1673,-2.1748,-2.1719,-2.1727,-2.1764,-2.1838,-2.1844,-2.1849,-2.1899,-2.1911,-2.1922,0,0,0,0,0,0,-2.1624,-2.1631,-2.1617,-2.1675,-2.1689,-2.1696,-2.1728,-2.171,-2.1732,-2.1726,-2.171,-2.1713,-2.1764,-2.1768,-2.1736,-2.1827,-2.1788,-2.1796,-2.1823,-2.1835,-2.1844,-2.1843,-2.1693,0,0,0,0,0,-2.1641,-2.1672,-2.1676,-2.1727,-2.1735,-2.173,-2.1746,-2.1736,-2.175,-2.1755,-2.1759,-2.1772,-2.1799,-2.1817,-2.1841,-2.1903,-2.1905,-2.1932,-2.1941,-2.1949,-2.1956,-2.199,-2.2002,-2.187,-2.187,-2.187,0,0,-2.1677,-2.1685,-2.1705,-2.1737,-2.1747,-2.1779,-2.1736,-2.1771,-2.1794,-2.176,-2.1806,-2.1809,-2.1823,-2.1878,-2.1903,-2.1883,-2.1993,-2.1956,-2.1962,-2.1965,-2.1997,-2.2009,-2.2021,-2.1874,-2.1873,-2.1873,0,0,-2.1759,-2.1768,-2.1812,-2.1823,-2.1838,-2.1835,-2.1845,-2.1855,-2.1856,-2.1902,-2.1877,-2.1904,-2.195,-2.1961,-2.1973,-2.2059,-2.2039,-2.2067,-2.2117,-2.215,-2.2161,-2.217,-2.2202,-2.2213,-2.2074,-2.2074,-2.2074,0,-2.1802,-2.185,-2.1837,-2.1874,-2.1889,-2.186,-2.1905,-2.1915,-2.1937,-2.1948,-2.1926,-2.1983,-2.199,-2.2048,-2.207,-2.2079,-2.2091,-2.2067,-2.216,-2.2169,-2.2178,-2.2208,-2.222,-2.2078,-2.2077,-2.2077,-2.2077,0,-2.1902,-2.1936,-2.1969,-2.1993,-2.2011,-2.2052,-2.2044,-2.2064,-2.2052,-2.2051,-2.2098,-2.2105,-2.2131,-2.2143,-2.2132,-2.22,-2.2187,-2.2163,-2.2124,-2.2194,-2.2222,-2.2234,-2.2082,-2.2081,-2.208,-2.2079,0,0,-2.2017,-2.2032,-2.2045,-2.2056,-2.207,-2.2096,-2.2134,-2.216,-2.2178,-2.2194,-2.2227,-2.2266,-2.2244,-2.2257,-2.2246,-2.2275,-2.2344,-2.2247,-2.2247,-2.2266,-2.242,-2.244,-2.2454,-2.233,-2.2332,-2.2334,-2.242,0,-2.21,-2.2169,-2.2158,-2.2225,-2.2256,-2.2228,-2.2262,-2.2275,-2.2274,-2.23,-2.2298,-2.2327,-2.2295,-2.2303,-2.233,-2.233,-2.2375,-2.2323,-2.2361,-2.2362,-2.236,-2.2468,-2.2489,-2.257,-2.2431,-2.2432,-2.2434,0,-2.2207,-2.2229,-2.2299,-2.2309,-2.2321,-2.2352,-2.2376,-2.24,-2.2413,-2.2411,-2.2426,-2.2409,-2.2448,-2.2407,-2.246,-2.2425,-2.2439,-2.2441,-2.2444,-2.2449,-2.2404,-2.2477,-2.2595,-2.2608,-2.2451,-2.2449,-2.2448,0,-2.2286,-2.2331,-2.2379,-2.2389,-2.2402,-2.2424,-2.243,-2.2441,-2.2458,-2.2477,-2.2488,-2.2511,-2.2524,-2.2543,-2.2533,-2.2504,-2.2588,-2.2546,-2.2587,-2.2588,-2.2608,-2.2607,-2.2731,-2.2614,-2.2614,-2.2614,-2.2614,0,-2.2381,-2.2426,-2.2415,-2.2445,-2.2494,-2.2479,-2.2528,-2.253,-2.254,-2.257,-2.2546,-2.2574,-2.2559,-2.2585,-2.2577,-2.2623,-2.2629,-2.2628,-2.2626,-2.2631,-2.2632,-2.2642,-2.2636,-2.2617,-2.2616,-2.2616,-2.2615,0,-2.2478,-2.2473,-2.2524,-2.2531,-2.2534,-2.257,-2.2576,-2.2604,-2.2601,-2.2639,-2.2646,-2.2642,-2.2672,-2.2664,-2.2696,-2.2691,-2.2749,-2.2738,-2.2745,-2.2743,-2.2786,-2.2783,-2.2922,-2.294,-2.281,-2.2811,-2.2812,0,-2.254,-2.2574,-2.2586,-2.2604,-2.2613,-2.2642,-2.2659,-2.2646,-2.2664,-2.2682,-2.2707,-2.2735,-2.2758,-2.2806,-2.2806,-2.283,-2.2821,-2.2869,-2.2825,-2.283,-2.2824,-2.2823,-2.2827,-2.2878,-2.288,-2.2881,-2.2882,0,-2.2652,-2.2648,-2.2674,-2.2699,-2.272,-2.2738,-2.2755,-2.2771,-2.2759,-2.2781,-2.2812,-2.2829,-2.2862,-2.289,-2.2912,-2.2918,-2.2898,-2.2895,-2.2906,-2.2913,-2.2916,-2.2917,-2.2771,-2.2893,-2.2891,-2.2891,-2.289,-2.289,-2.2735,-2.2764,-2.2777,-2.2806,-2.2817,-2.2833,-2.286,-2.2861,-2.2886,-2.2913,-2.2903,-2.2939,-2.2951,-2.2979,-2.2987,-2.3014,-2.2996,-2.3012,-2.3016,-2.3021,-2.3027,-2.2911,-2.3018,-2.3017,-2.3017,-2.3017,-2.3017,0,-2.2847,-2.2854,-2.2881,-2.2905,-2.2928,-2.2908,-2.2925,-2.2945,-2.2977,-2.299,-2.3012,-2.3048,-2.3075,-2.3076,-2.3102,-2.3123,-2.3115,-2.3131,-2.313,-2.3132,-2.3041,-2.303,-2.3137,-2.3137,-2.3137,-2.3137,-2.3137,-2.3137,-2.2908,-2.2956,-2.2953,-2.3007,-2.3013,-2.3048,-2.306,-2.3075,-2.3085,-2.3126,-2.3149,-2.315,-2.3158,-2.3183,-2.3207,-2.3207,-2.3218,-2.3237,-2.3234,-2.315,-2.3138,-2.3126,-2.3116,-2.324,-2.324,-2.3322,-2.3323,-2.3324]},{"header":{"parameterUnit":"m.s-1","parameterCategory":1,"la1":30.2991,"la2":30.254,"lo1":-89.0895,"lo2":-89.0444,"dy":0.0017,"dx":0.0017,"nx":28,"ny":28,"refTime":"2023-11-11T03:00:00:Z","depth":0,"parameterNumber":3,"parameterNumberName":"V-component_of_WINDS"},"data":[0,0,0,0,0,0,0,0,0,0,0,0,0,0,0,0,0,0,0,0,0,0,0,0,0,0,0,0,0,0,0,0,0,0,0,0,0,0,0,0,0,0,0,0,0,0,0,0,0,0,0,0,0,0,0,0,0,0,-4.2221,-4.2222,0,-4.2329,-4.2331,-4.2332,-4.2332,-4.2331,-4.233,-4.2328,-4.2433,-4.2437,-4.2441,0,0,0,0,0,0,0,0,0,0,0,0,0,-4.2008,-4.2012,-4.2221,-4.2222,-4.2223,-4.2329,-4.2331,-4.2332,-4.2333,-4.2331,-4.2329,-4.2328,-4.2432,-4.2436,-4.2441,0,0,0,0,0,0,0,0,0,0,0,0,0,-4.2107,-4.2013,-4.222,-4.2237,-4.2239,-4.2329,-4.2331,-4.2332,-4.2333,-4.2331,-4.2329,-4.2327,-4.243,-4.2436,-4.2442,-4.2521,0,0,-4.2461,-4.2463,0,0,0,0,0,0,0,0,-4.2101,-4.2115,-4.2233,-4.2236,-4.2239,-4.2315,-4.2294,-4.2395,-4.2334,-4.2297,-4.2328,-4.2326,-4.2395,-4.2404,-4.2429,-4.2526,-4.253,-4.2461,-4.2465,-4.2467,-4.2469,0,0,0,0,0,0,0,-4.2094,-4.211,-4.2263,-4.2235,-4.2238,-4.2237,-4.2248,-4.2313,-4.2356,-4.23,-4.2301,-4.2314,-4.2396,-4.2423,-4.2431,-4.2532,-4.2461,-4.2466,-4.247,-4.2473,-4.2699,-4.2702,0,0,0,0,0,0,-4.2085,-4.2104,-4.226,-4.2267,-4.2164,-4.2242,-4.2255,-4.2293,-4.2355,-4.2363,-4.2315,-4.2313,-4.2413,-4.2424,-4.2435,-4.2532,-4.2467,-4.2473,-4.2477,-4.2697,-4.27,-4.2702,0,0,0,0,0,0,-4.2081,-4.2099,-4.2256,-4.2186,-4.2206,-4.2248,-4.229,-4.2296,-4.2323,-4.2367,-4.2374,-4.2335,-4.2412,-4.2426,-4.25,-4.2536,-4.2476,-4.2481,-4.2694,-4.2698,-4.2701,-4.2727,0,0,0,0,0,0,-4.2074,-4.2097,-4.2129,-4.2187,-4.2209,-4.2321,-4.2292,-4.23,-4.2334,-4.2332,-4.2387,-4.2394,-4.2412,-4.2491,-4.2506,-4.2543,-4.2486,-4.2691,-4.2696,-4.27,-4.2723,-4.2731,-4.2738,0,0,0,0,0,-4.2067,-4.213,-4.2131,-4.2149,-4.225,-4.2323,-4.2336,-4.2356,-4.2337,-4.2368,-4.2397,-4.2393,-4.2529,-4.2499,-4.2516,-4.2555,-4.2689,-4.2695,-4.27,-4.272,-4.2729,-4.2737,0,0,0,0,0,0,-4.2073,-4.2138,-4.2139,-4.2224,-4.2268,-4.2323,-4.2364,-4.2366,-4.2415,-4.2411,-4.2432,-4.2445,-4.2518,-4.2544,-4.2508,-4.2635,-4.2606,-4.2615,-4.2616,-4.2625,-4.2632,-4.2625,-4.2491,0,0,0,0,0,-4.2085,-4.2141,-4.2193,-4.2263,-4.2285,-4.2321,-4.2353,-4.2365,-4.2411,-4.2429,-4.2463,-4.2506,-4.2559,-4.2593,-4.2644,-4.2726,-4.2738,-4.2762,-4.2769,-4.2775,-4.2782,-4.2828,-4.2839,-4.272,-4.272,-4.272,0,0,-4.2109,-4.2151,-4.2185,-4.2265,-4.2301,-4.2357,-4.2336,-4.2396,-4.2437,-4.2438,-4.2511,-4.2537,-4.2586,-4.2665,-4.2701,-4.2688,-4.2818,-4.2781,-4.2786,-4.279,-4.2835,-4.2846,-4.2856,-4.2724,-4.2723,-4.2722,0,0,-4.2181,-4.2219,-4.2282,-4.2319,-4.2374,-4.2398,-4.2413,-4.2468,-4.2486,-4.256,-4.2562,-4.261,-4.27,-4.2736,-4.2766,-4.2853,-4.2851,-4.2868,-4.2906,-4.2951,-4.296,-4.2969,-4.3,-4.3012,-4.2876,-4.2876,-4.2876,0,-4.2203,-4.229,-4.2313,-4.2374,-4.2409,-4.2414,-4.2477,-4.2511,-4.2579,-4.2603,-4.2588,-4.2702,-4.2736,-4.2823,-4.2845,-4.2868,-4.2885,-4.2863,-4.2958,-4.2966,-4.2974,-4.3005,-4.3017,-4.2878,-4.2877,-4.2877,-4.2877,0,-4.2315,-4.2375,-4.2418,-4.2487,-4.2527,-4.2588,-4.2619,-4.2656,-4.2665,-4.2689,-4.2764,-4.2804,-4.2864,-4.2886,-4.2893,-4.2974,-4.2965,-4.2953,-4.2926,-4.2987,-4.3016,-4.3028,-4.288,-4.288,-4.2879,-4.2879,0,0,-4.2394,-4.2477,-4.2492,-4.2524,-4.2587,-4.2632,-4.2693,-4.2754,-4.2786,-4.2832,-4.2884,-4.2961,-4.2951,-4.2985,-4.2997,-4.3036,-4.3103,-4.3019,-4.3021,-4.3034,-4.3195,-4.3204,-4.3218,-4.3102,-4.3104,-4.3106,-4.3191,0,-4.2474,-4.2586,-4.2609,-4.2705,-4.2761,-4.2767,-4.282,-4.2863,-4.2887,-4.2936,-4.2961,-4.3016,-4.2999,-4.302,-4.3058,-4.3087,-4.3136,-4.308,-4.3149,-4.3151,-4.3138,-4.3233,-4.3242,-4.3321,-4.3203,-4.3205,-4.3206,0,-4.2583,-4.2636,-4.2738,-4.2795,-4.2819,-4.2866,-4.2924,-4.2972,-4.302,-4.3035,-4.3073,-4.3081,-4.3143,-4.3112,-4.3198,-4.316,-4.3189,-4.3207,-4.321,-4.3218,-4.3183,-4.3244,-4.3347,-4.3359,-4.3224,-4.3223,-4.3221,0,-4.2632,-4.2728,-4.2803,-4.2829,-4.2896,-4.293,-4.2959,-4.3006,-4.3041,-4.3091,-4.3114,-4.3169,-4.3199,-4.3241,-4.3263,-4.3238,-4.3347,-4.3318,-4.336,-4.336,-4.3384,-4.3382,-4.3494,-4.3401,-4.3401,-4.34,-4.34,0,-4.272,-4.2782,-4.2826,-4.2872,-4.2942,-4.2966,-4.3034,-4.3062,-4.3104,-4.3154,-4.3161,-4.3207,-4.3233,-4.3282,-4.3299,-4.3368,-4.3381,-4.3394,-4.3398,-4.3394,-4.3393,-4.3414,-4.3409,-4.3404,-4.3403,-4.3402,-4.3402,0,-4.2787,-4.2819,-4.29,-4.2958,-4.2974,-4.3023,-4.3071,-4.3115,-4.3139,-4.3203,-4.3219,-4.3256,-4.3315,-4.3341,-4.3412,-4.3424,-4.3503,-4.3502,-4.3487,-4.3489,-4.3531,-4.3527,-4.3661,-4.368,-4.3573,-4.3574,-4.3575,0,-4.2841,-4.289,-4.2954,-4.299,-4.302,-4.3077,-4.3114,-4.3139,-4.3177,-4.3236,-4.3273,-4.3332,-4.3382,-4.3475,-4.3507,-4.3562,-4.3563,-4.3606,-4.3571,-4.3566,-4.3565,-4.3562,-4.3567,-4.3613,-4.3614,-4.3615,-4.3615,0,-4.2935,-4.2949,-4.3003,-4.3064,-4.3109,-4.3157,-4.3203,-4.3231,-4.3263,-4.3305,-4.3367,-4.3406,-4.348,-4.3539,-4.3596,-4.3623,-4.3625,-4.3626,-4.3639,-4.3636,-4.3626,-4.3633,-4.3506,-4.3623,-4.3622,-4.3622,-4.3621,-4.3621,-4.2998,-4.3043,-4.3095,-4.3156,-4.3194,-4.3238,-4.3283,-4.3314,-4.3367,-4.3431,-4.3442,-4.3508,-4.3554,-4.3632,-4.3661,-4.3712,-4.3701,-4.372,-4.3725,-4.3729,-4.3732,-4.3618,-4.3722,-4.3722,-4.3722,-4.3722,-4.3721,0,-4.3093,-4.3128,-4.3183,-4.325,-4.3298,-4.3297,-4.3349,-4.3388,-4.3447,-4.3492,-4.3541,-4.3612,-4.3669,-4.3707,-4.3764,-4.3797,-4.3799,-4.3812,-4.381,-4.3816,-4.3738,-4.3722,-4.3809,-4.3809,-4.3809,-4.3809,-4.3809,-4.3809,-4.3148,-4.3224,-4.3244,-4.3338,-4.3371,-4.3438,-4.3468,-4.3508,-4.3544,-4.3624,-4.3673,-4.3698,-4.3739,-4.38,-4.3852,-4.3861,-4.3882,-4.3896,-4.3904,-4.3831,-4.3822,-4.3813,-4.3798,-4.39,-4.39,-4.3979,-4.3979,-4.398]}]]